FW6717 Weather Reports


time (UTC)temp
C
wind
direction
speed
KPH
gust
KPH
rain 1hr
cm
rain 24hr
cm
rain mn
cm
humidity
%
barometer
mb
20260507065021 23 30 11.3 25.7 0.00 0.00 0.00 83 1011.2
20260507064520 24 14 11.3 25.7 0.00 0.00 0.00 83 1011.3
20260507064019 25 18 12.9 25.7 0.00 0.00 0.00 83 1011.2
20260507063517 25 85 1.6 12.9 0.00 0.00 0.00 92 1011.1
20260507063024 25 70 3.2 12.9 0.00 0.00 0.00 92 1011.2
20260507062517 25 74 4.8 12.9 0.00 0.00 0.00 92 1011.1
20260507062018 25 60 4.8 9.7 0.00 0.00 0.00 92 1011.0
20260507061517 25 104 3.2 11.3 0.00 0.00 0.00 91 1011.1
20260507061015 25 66 3.2 12.9 0.00 0.00 0.00 91 1011.1
20260507060515 25 40 4.8 12.9 0.00 0.00 0.00 91 1011.0
20260507060015 26 57 3.2 8.0 0.00 0.00 0.00 91 1011.0
20260507055515 26 55 3.2 8.0 0.00 0.00 0.00 91 1011.1
20260507055014 26 51 3.2 8.0 0.00 0.00 0.00 91 1011.1
20260507054515 26 71 3.2 6.4 0.00 0.00 0.00 91 1011.3
20260507054014 26 69 1.6 8.0 0.00 0.00 0.00 91 1011.2
20260507053513 26 69 3.2 8.0 0.00 0.00 0.00 91 1011.1
20260507053013 25 87 3.2 11.3 0.00 0.00 0.00 91 1011.0
20260507052512 26 103 3.2 11.3 0.00 0.00 0.00 91 1011.1
20260507052014 26 77 3.2 6.4 0.00 0.00 0.00 91 1011.1
20260507051512 26 77 3.2 6.4 0.00 0.00 0.00 91 1011.1
20260507051017 26 69 3.2 6.4 0.00 0.00 0.00 91 1011.0
20260507050510 26 65 3.2 6.4 0.00 0.00 0.00 91 1011.0
20260507050023 25 65 1.6 9.7 0.00 0.00 0.00 91 1011.0
20260507045508 26 82 3.2 8.0 0.00 0.00 0.00 91 1011.0
20260507045008 25 59 3.2 6.4 0.00 0.00 0.00 91 1011.1
20260507044507 25 55 1.6 6.4 0.00 0.00 0.00 91 1011.0
20260507044006 25 86 1.6 6.4 0.00 0.00 0.00 91 1010.9
20260507043507 25 86 3.2 9.7 0.00 0.00 0.00 91 1010.8
20260507043008 25 88 3.2 11.3 0.00 0.00 0.00 91 1010.9
20260507042505 25 123 3.2 11.3 0.00 0.00 0.00 91 1010.8
20260507042005 25 92 1.6 11.3 0.00 0.00 0.00 91 1010.7
20260507041505 25 87 4.8 11.3 0.00 0.00 0.00 91 1010.7
20260507041006 25 67 1.6 11.3 0.00 0.00 0.00 91 1010.8
20260507040503 25 119 3.2 11.3 0.00 0.00 0.00 91 1010.8
20260507040006 25 115 3.2 16.1 0.00 0.00 0.00 91 1010.7
20260507035502 25 107 3.2 14.5 0.00 0.00 0.00 90 1010.6
20260507035002 25 84 3.2 12.9 0.00 0.00 0.00 90 1010.5
20260507034500 25 101 4.8 12.9 0.00 0.00 0.00 90 1010.4
20260507034000 25 78 4.8 12.9 0.00 0.00 0.00 90 1010.4
20260507033600 25 110 4.8 9.7 0.00 0.00 0.00 90 1010.3
20260507033105 25 82 3.2 11.3 0.00 0.00 0.00 91 1010.3
20260507032559 25 82 3.2 11.3 0.00 0.00 0.00 90 1010.2
20260507032057 25 111 3.2 16.1 0.00 0.00 0.00 90 1010.0
20260507031607 25 92 8.0 16.1 0.00 0.00 0.00 90 1009.9
20260507031057 25 123 4.8 12.9 0.00 0.00 0.00 90 1010.0
20260507030555 25 102 4.8 14.5 0.00 0.00 0.00 90 1009.9
20260507030100 25 109 6.4 14.5 0.00 0.00 0.00 90 1009.8
20260507025559 25 98 6.4 14.5 0.00 0.00 0.00 90 1009.8
20260507025054 25 111 6.4 14.5 0.00 0.00 0.00 90 1009.8
20260507024554 25 123 6.4 12.9 0.00 0.00 0.00 90 1009.8
20260507024053 25 79 4.8 12.9 0.00 0.00 0.00 90 1009.7
20260507023552 25 88 6.4 12.9 0.00 0.00 0.00 90 1009.6
20260507023104 26 87 4.8 14.5 0.00 0.00 0.00 89 1009.5
20260507022551 26 72 6.4 14.5 0.00 0.00 0.00 89 1009.3
20260507022051 26 130 6.4 14.5 0.00 0.00 0.00 89 1009.3
20260507021551 26 111 8.0 17.7 0.00 0.00 0.00 89 1009.4
20260507021054 26 110 9.7 17.7 0.00 0.00 0.00 89 1009.2
20260507020549 26 134 6.4 14.5 0.00 0.00 0.00 89 1009.1
20260507020050 26 120 9.7 16.1 0.00 0.00 0.00 89 1009.0
20260507015548 26 119 8.0 16.1 0.00 0.00 0.00 89 1008.9
20260507015047 26 139 8.0 12.9 0.00 0.00 0.00 89 1008.8
20260507014552 26 134 4.8 20.9 0.00 0.00 0.00 89 1008.8
20260507014047 26 113 6.4 20.9 0.00 0.00 0.00 89 1008.7
20260507013545 26 132 8.0 17.7 0.00 0.00 0.00 89 1008.6
20260507013047 26 84 8.0 17.7 0.00 0.00 0.00 89 1008.4
20260507012545 26 121 9.7 17.7 0.00 0.00 0.00 88 1008.6
20260507012045 26 111 9.7 16.1 0.00 0.00 0.00 88 1008.5
20260507011547 26 97 6.4 14.5 0.00 0.00 0.00 87 1008.4
20260507011043 26 74 4.8 16.1 0.00 0.00 0.00 87 1008.4
20260507010544 26 114 9.7 16.1 0.00 0.00 0.00 87 1008.4
20260507010045 26 109 8.0 14.5 0.00 0.00 0.00 87 1008.4
20260507005544 26 102 8.0 14.5 0.00 0.00 0.00 86 1008.2
20260507005043 26 103 6.4 16.1 0.00 0.00 0.00 86 1008.2
20260507004542 26 97 6.4 16.1 0.00 0.00 0.00 85 1008.1
20260507004043 26 116 6.4 17.7 0.00 0.00 0.00 85 1008.0
20260507003546 26 136 9.7 17.7 0.00 0.00 0.00 85 1007.9
20260507003049 26 130 9.7 16.1 0.00 0.00 0.00 85 1007.8
20260507002542 27 121 6.4 16.1 0.00 0.00 0.00 85 1007.7
20260507002042 27 117 6.4 17.7 0.00 0.00 0.00 85 1007.6
20260507001544 27 99 6.4 19.3 0.00 0.00 0.00 85 1007.7
20260507001041 27 114 8.0 19.3 0.00 0.00 0.00 84 1007.6
20260507000545 27 149 6.4 19.3 0.00 0.00 0.00 84 1007.6
20260507000043 27 127 11.3 19.3 0.00 0.00 0.00 84 1007.5
20260506235541 27 126 8.0 17.7 0.00 0.00 0.00 84 1007.5
20260506235043 27 134 12.9 17.7 0.00 0.00 0.00 84 1007.4
20260506234540 27 78 6.4 17.7 0.00 0.00 0.00 84 1007.3
20260506234042 27 129 9.7 19.3 0.00 0.00 0.00 83 1007.3
20260506233540 27 132 9.7 19.3 0.00 0.00 0.00 83 1007.3
20260506233045 27 126 8.0 20.9 0.00 0.00 0.00 83 1007.4
20260506232540 27 118 8.0 20.9 0.00 0.00 0.00 83 1007.3
20260506232040 27 105 11.3 16.1 0.00 0.00 0.00 82 1007.2
20260506231541 27 126 8.0 19.3 0.00 0.00 0.00 83 1007.2
20260506231039 27 161 9.7 20.9 0.00 0.00 0.00 82 1007.3
20260506230538 27 131 4.8 22.5 0.00 0.00 0.00 82 1007.2
20260506230038 28 120 9.7 22.5 0.00 0.00 0.00 81 1007.1
20260506225539 28 165 4.8 14.5 0.00 0.00 0.00 81 1007.1
20260506225039 28 141 6.4 17.7 0.00 0.00 0.00 81 1007.1
20260506224538 28 159 8.0 17.7 0.00 0.00 0.00 81 1007.1
20260506224037 28 110 4.8 19.3 0.00 0.00 0.00 80 1007.1
20260506223537 28 152 9.7 19.3 0.00 0.00 0.00 80 1007.1
20260506223037 28 117 8.0 19.3 0.00 0.00 0.00 79 1007.0
20260506222537 28 153 8.0 19.3 0.00 0.00 0.00 79 1006.9
20260506222036 28 141 6.4 19.3 0.00 0.00 0.00 78 1007.0
20260506221537 28 121 8.0 19.3 0.00 0.00 0.00 78 1007.0
20260506221036 28 179 4.8 16.1 0.00 0.00 0.00 79 1006.9
20260506220536 28 137 4.8 16.1 0.00 0.00 0.00 80 1007.0
20260506220039 28 148 4.8 19.3 0.00 0.00 0.00 79 1007.0
20260506215539 28 98 8.0 19.3 0.00 0.00 0.00 79 1007.1
20260506215036 28 147 4.8 14.5 0.00 0.00 0.00 78 1007.1
20260506214535 29 197 6.4 12.9 0.00 0.00 0.00 77 1007.0
20260506214035 29 102 4.8 16.1 0.00 0.00 0.00 78 1007.0
20260506213534 29 129 6.4 16.1 0.00 0.00 0.00 77 1007.0
20260506213034 29 136 6.4 14.5 0.00 0.00 0.00 77 1007.0
20260506212534 29 186 4.8 16.1 0.00 0.00 0.00 76 1007.1
20260506212038 30 123 6.4 16.1 0.00 0.00 0.00 75 1007.0
20260506211535 30 188 6.4 14.5 0.00 0.00 0.00 75 1007.0
20260506211034 30 112 4.8 11.3 0.00 0.00 0.00 75 1007.0
20260506210534 30 132 4.8 17.7 0.00 0.00 0.00 75 1007.0
20260506210033 30 118 8.0 17.7 0.00 0.00 0.00 75 1007.0
20260506205537 30 118 8.0 19.3 0.00 0.00 0.00 75 1007.1
20260506205034 30 125 6.4 17.7 0.00 0.00 0.00 73 1007.1
20260506204534 30 202 4.8 19.3 0.00 0.00 0.00 75 1007.1
20260506204033 30 107 11.3 19.3 0.00 0.00 0.00 74 1007.2
20260506203532 30 130 8.0 17.7 0.00 0.00 0.00 74 1007.3
20260506203034 30 176 8.0 17.7 0.00 0.00 0.00 74 1007.2
20260506202531 30 124 6.4 16.1 0.00 0.00 0.00 74 1007.3
20260506202031 30 192 8.0 16.1 0.00 0.00 0.00 75 1007.4
20260506201532 29 107 6.4 19.3 0.00 0.00 0.00 77 1007.6
20260506201031 29 160 9.7 19.3 0.00 0.00 0.00 77 1007.6
20260506200533 29 125 9.7 19.3 0.00 0.00 0.00 76 1007.6
20260506200031 30 130 11.3 17.7 0.00 0.00 0.00 75 1007.7
20260506195531 30 131 3.2 14.5 0.00 0.00 0.00 76 1007.7
20260506195033 30 159 3.2 16.1 0.00 0.00 0.00 75 1007.7
20260506194530 30 111 4.8 16.1 0.00 0.00 0.00 75 1007.9
20260506194031 30 171 4.8 12.9 0.00 0.00 0.00 74 1008.1
20260506193529 30 164 6.4 12.9 0.00 0.00 0.00 74 1008.0
20260506193032 30 200 4.8 16.1 0.00 0.00 0.00 75 1008.0
20260506192533 30 126 4.8 16.1 0.00 0.00 0.00 75 1008.0
20260506192029 29 184 6.4 17.7 0.00 0.00 0.00 77 1008.2
20260506191529 29 160 8.0 17.7 0.00 0.00 0.00 77 1008.2
20260506191029 28 89 12.9 20.9 0.00 0.00 0.00 78 1008.3
20260506190532 28 130 8.0 20.9 0.00 0.00 0.00 79 1008.3
20260506190028 28 145 8.0 17.7 0.00 0.00 0.00 79 1008.5
20260506185528 28 133 4.8 12.9 0.00 0.00 0.00 81 1008.5
20260506185028 27 130 3.2 14.5 0.00 0.00 0.00 81 1008.6
20260506184528 28 200 6.4 14.5 0.00 0.00 0.00 81 1008.5
20260506184030 28 164 3.2 14.5 0.00 0.00 0.00 80 1008.6
20260506183527 28 175 4.8 20.9 0.00 0.00 0.00 80 1008.6
20260506183027 28 187 9.7 20.9 0.00 0.00 0.00 79 1008.6
20260506182527 28 174 3.2 11.3 0.00 0.00 0.00 78 1008.6
20260506182027 28 117 1.6 14.5 0.00 0.00 0.00 78 1008.6
20260506181528 29 155 4.8 14.5 0.00 0.00 0.00 77 1008.6
20260506181027 29 176 4.8 16.1 0.00 0.00 0.00 76 1008.6
20260506180527 30 201 0.0 6.4 0.00 0.00 0.00 74 1008.7
20260506180026 30 229 3.2 6.4 0.00 0.00 0.00 73 1008.6
20260506175525 30 196 0.0 9.7 0.00 0.00 0.00 73 1008.6
20260506175028 30 191 1.6 11.3 0.00 0.00 0.00 73 1008.6
20260506174525 30 202 4.8 11.3 0.00 0.00 0.00 72 1008.6
20260506174024 30 249 3.2 6.4 0.00 0.00 0.00 73 1008.4
20260506173523 30 242 0.0 6.4 0.00 0.00 0.00 75 1008.5
20260506173022 30 210 1.6 8.0 0.00 0.00 0.00 76 1008.5
20260506172520 29 164 3.2 9.7 0.00 0.00 0.00 77 1008.5
20260506172019 29 136 1.6 11.3 0.00 0.00 0.00 78 1008.7
20260506171521 28 172 6.4 11.3 0.00 0.00 0.00 79 1008.8
20260506171017 28 218 1.6 8.0 0.00 0.00 0.00 81 1008.6
20260506170515 28 188 3.2 9.7 0.00 0.00 0.00 83 1008.6
20260506170017 27 180 3.2 9.7 0.00 0.00 0.00 83 1008.6
20260506165515 27 222 1.6 6.4 0.00 0.00 0.00 84 1008.7
20260506165011 27 192 1.6 12.9 0.00 0.00 0.00 86 1008.8
20260506164510 27 196 3.2 12.9 0.00 0.00 0.00 87 1008.8
20260506164009 27 200 1.6 6.4 0.00 0.00 0.00 87 1008.8
20260506163507 26 192 1.6 8.0 0.00 0.00 0.00 87 1008.9
20260506163012 26 185 1.6 8.0 0.00 0.00 0.00 88 1008.8
20260506162507 26 195 3.2 9.7 0.00 0.00 0.00 89 1008.7
20260506162005 26 209 3.2 9.7 0.00 0.00 0.00 89 1008.7
20260506161504 26 180 3.2 9.7 0.00 0.00 0.00 89 1008.8
20260506161004 26 225 0.0 9.7 0.00 0.00 0.00 90 1008.7
20260506160506 26 202 4.8 12.9 0.00 0.00 0.00 89 1008.6
20260506160007 26 248 3.2 11.3 0.00 0.00 0.00 89 1008.5
20260506155502 26 217 3.2 14.5 0.00 0.00 0.00 89 1008.5
20260506155001 26 163 3.2 16.1 0.00 0.00 0.00 89 1008.3
20260506154628 26 192 3.2 12.9 0.00 0.00 0.00 89 1008.2
20260506154102 26 182 6.4 16.1 0.00 0.00 0.00 88 1008.1
20260506153601 26 199 3.2 16.1 0.00 0.00 0.00 88 1008.0
20260506153110 26 202 3.2 11.3 0.00 0.00 0.00 89 1008.0
20260506152559 26 175 3.2 11.3 0.00 0.00 0.00 89 1008.0
20260506152100 26 176 1.6 14.5 0.00 0.00 0.00 89 1008.0
20260506151600 26 146 3.2 12.9 0.00 0.00 0.00 89 1007.9
20260506151058 26 189 4.8 12.9 0.00 0.00 0.00 89 1007.9
20260506150558 26 133 3.2 11.3 0.00 0.00 0.00 89 1008.1
20260506145558 26 172 1.6 11.3 0.00 0.00 0.00 89 1008.2
20260506145057 26 233 3.2 14.5 0.00 0.00 0.00 89 1007.9
20260506144557 26 192 4.8 14.5 0.00 0.00 0.00 88 1007.9
20260506144056 26 183 3.2 11.3 0.00 0.00 0.00 88 1007.9
20260506143556 26 194 4.8 11.3 0.00 0.00 0.00 88 1007.9
20260506143105 26 188 3.2 11.3 0.00 0.00 0.00 88 1007.9
20260506142556 26 206 3.2 11.3 0.00 0.00 0.00 88 1008.0
20260506142055 26 186 3.2 11.3 0.00 0.00 0.00 88 1008.0
20260506141555 26 213 3.2 8.0 0.00 0.00 0.00 88 1008.0
20260506141057 26 179 3.2 14.5 0.00 0.00 0.00 87 1008.0
20260506140555 26 165 3.2 14.5 0.00 0.00 0.00 87 1008.0
20260506140058 26 121 1.6 16.1 0.00 0.00 0.00 87 1007.9
20260506135555 26 185 3.2 11.3 0.00 0.00 0.00 87 1007.9
20260506135052 26 167 3.2 12.9 0.00 0.00 0.00 87 1008.0
20260506134553 26 167 4.8 12.9 0.00 0.00 0.00 87 1007.8
20260506134052 26 142 3.2 11.3 0.00 0.00 0.00 88 1007.8
20260506133552 26 222 3.2 11.3 0.00 0.00 0.00 88 1007.8
20260506133051 26 190 1.6 8.0 0.00 0.00 0.00 88 1007.8
20260506132550 25 153 1.6 9.7 0.00 0.00 0.00 88 1007.9
20260506132054 25 173 1.6 9.7 0.00 0.00 0.00 88 1007.9
20260506131650 25 172 1.6 9.7 0.00 0.00 0.00 88 1008.0
20260506131050 25 198 3.2 11.3 0.00 0.00 0.00 88 1007.8
20260506130552 25 188 3.2 16.1 0.00 0.00 0.00 89 1007.7
20260506130050 25 166 4.8 16.1 0.00 0.00 0.00 89 1007.7
20260506125552 25 158 3.2 14.5 0.00 0.00 0.00 89 1007.7
20260506125052 25 159 1.6 14.5 0.00 0.00 0.00 89 1007.6
20260506124549 25 123 3.2 9.7 0.00 0.00 0.00 89 1007.6
20260506124052 25 180 1.6 11.3 0.00 0.00 0.00 89 1007.5
20260506123552 25 199 1.6 8.0 0.00 0.00 0.00 89 1007.6
20260506123049 25 140 1.6 6.4 0.00 0.00 0.00 89 1007.5
20260506122548 25 150 1.6 11.3 0.00 0.00 0.00 89 1007.5
20260506122047 25 150 4.8 11.3 0.00 0.00 0.00 88 1007.4
20260506121547 25 130 4.8 11.3 0.00 0.00 0.00 88 1007.5
20260506121047 25 139 3.2 11.3 0.00 0.00 0.00 88 1007.5
20260506120547 25 146 1.6 6.4 0.00 0.00 0.00 88 1007.4
20260506120056 25 146 3.2 6.4 0.00 0.00 0.00 88 1007.3
20260506115548 25 173 1.6 4.8 0.00 0.00 0.00 88 1007.3
20260506115047 25 173 0.0 6.4 0.00 0.00 0.00 88 1007.3
20260506114555 25 175 1.6 9.7 0.00 0.00 0.00 88 1007.3
20260506114049 25 173 1.6 9.7 0.00 0.00 0.00 88 1007.4
20260506113549 25 227 0.0 9.7 0.00 0.00 0.00 88 1007.2
20260506113046 25 227 3.2 9.7 0.00 0.00 0.00 88 1007.1
20260506112546 25 159 1.6 8.0 0.00 0.00 0.00 88 1007.1
20260506112048 25 159 1.6 9.7 0.00 0.00 0.00 88 1007.1
20260506111545 25 153 3.2 9.7 0.00 0.00 0.00 88 1007.1
20260506111045 25 157 1.6 8.0 0.00 0.00 0.00 88 1007.1
20260506110545 25 147 3.2 9.7 0.00 0.00 0.00 88 1007.1
20260506110054 25 147 1.6 6.4 0.00 0.00 0.00 88 1007.2
20260506105545 25 178 1.6 6.4 0.00 0.00 0.00 88 1007.1
20260506105044 25 180 1.6 4.8 0.00 0.00 0.00 88 1007.1
20260506104544 25 180 1.6 4.8 0.00 0.00 0.00 88 1007.1
20260506104145 25 180 1.6 6.4 0.00 0.00 0.00 88 1007.0
20260506103543 25 180 1.6 9.7 0.00 0.00 0.00 88 1007.0
20260506103043 25 111 1.6 9.7 0.00 0.00 0.00 88 1007.2
20260506102543 25 171 1.6 9.7 0.00 0.00 0.00 88 1007.2
20260506102044 25 132 1.6 6.4 0.00 0.00 0.00 88 1007.1
20260506101544 25 178 1.6 8.0 0.00 0.00 0.00 88 1007.0
20260506101047 25 123 4.8 8.0 0.00 0.00 0.00 88 1006.9
20260506100543 25 126 0.0 4.8 0.00 0.00 0.00 88 1006.9
20260506100046 25 182 1.6 9.7 0.00 0.00 0.00 88 1006.9
20260506095545 25 161 3.2 9.7 0.00 0.00 0.00 88 1006.9
20260506095042 25 175 3.2 9.7 0.00 0.00 0.00 88 1006.9
20260506094601 25 155 3.2 11.3 0.00 0.00 0.00 88 1006.8
20260506094042 25 159 3.2 11.3 0.00 0.00 0.00 88 1006.8
20260506093541 25 144 1.6 8.0 0.00 0.00 0.00 87 1006.9
20260506093044 25 188 1.6 6.4 0.00 0.00 0.00 87 1006.8
20260506092542 25 189 0.0 6.4 0.00 0.00 0.00 87 1006.9
20260506092041 25 189 1.6 9.7 0.00 0.00 0.00 87 1006.9
20260506091541 25 202 3.2 9.7 0.00 0.00 0.00 87 1006.7
20260506091040 25 161 4.8 11.3 0.00 0.00 0.00 87 1006.6
20260506090541 25 203 4.8 12.9 0.00 0.00 0.00 87 1006.6
20260506090041 25 232 3.2 11.3 0.00 0.00 0.00 87 1006.6
20260506085540 25 96 1.6 9.7 0.00 0.00 0.00 87 1006.6
20260506085040 25 126 3.2 14.5 0.00 0.00 0.00 87 1006.6
20260506084540 25 96 3.2 14.5 0.00 0.00 0.00 87 1006.6
20260506084044 25 217 4.8 16.1 0.00 0.00 0.00 87 1006.7
20260506083540 25 138 4.8 16.1 0.00 0.00 0.00 87 1006.5
20260506083040 25 165 6.4 16.1 0.00 0.00 0.00 87 1006.6
20260506082543 25 195 1.6 9.7 0.00 0.00 0.00 87 1006.6
20260506082039 25 202 3.2 14.5 0.00 0.00 0.00 87 1006.5
20260506081539 25 221 1.6 14.5 0.00 0.00 0.00 87 1006.5
20260506081038 25 156 4.8 14.5 0.00 0.00 0.00 87 1006.5
20260506080538 25 207 3.2 11.3 0.00 0.00 0.00 87 1006.5
20260506073040 25 209 4.8 22.5 0.00 0.00 0.00 85 1006.6
20260506072532 25 191 3.2 22.5 0.00 0.00 0.00 85 1006.8
20260506072034 25 155 4.8 12.9 0.00 0.00 0.00 85 1006.9
20260506071534 25 188 4.8 12.9 0.00 0.00 0.00 86 1007.0
20260506071030 25 192 3.2 11.3 0.00 0.00 0.00 86 1007.1
20260506070529 25 190 4.8 16.1 0.00 0.00 0.00 85 1007.2